[[{"header":{"parameterUnit":"m.s-1","parameterCategory":1,"la1":30.2991,"la2":30.254,"lo1":-89.0895,"lo2":-89.0444,"dy":0.0017,"dx":0.0017,"nx":28,"ny":28,"refTime":"2025-11-24T09:00:00:Z","depth":0,"parameterNumber":2,"parameterNumberName":"U-component_of_WINDS"},"data":[0,0,0,0,0,0,0,0,0,0,0,0,0,0,0,0,0,0,0,0,0,0,0,0,0,0,0,0,0,0,0,0,0,0,0,0,0,0,0,0,0,0,0,0,0,0,0,0,0,0,0,0,0,0,0,0,0,0,-2.9861,-2.9862,0,-2.9926,-2.9926,-2.9927,-2.988,-2.9878,-2.9876,-2.9874,-2.994,-2.9944,-2.9947,0,0,0,0,0,0,0,0,0,0,0,0,0,-2.9698,-2.9701,-2.9861,-2.9862,-2.9862,-2.9925,-2.9926,-2.9927,-2.9881,-2.9878,-2.9876,-2.9873,-2.9939,-2.9943,-2.9948,0,0,0,0,0,0,0,0,0,0,0,0,0,-2.9766,-2.9702,-2.9861,-2.9847,-2.9846,-2.9925,-2.9926,-2.9927,-2.9881,-2.9878,-2.9875,-2.9872,-2.9937,-2.9943,-2.9948,-3.0044,0,0,-2.9965,-2.9967,0,0,0,0,0,0,0,0,-2.9762,-2.9772,-2.9848,-2.9848,-2.9847,-2.9892,-2.9893,-2.9967,-2.9882,-2.9868,-2.9874,-2.9871,-2.9926,-2.9933,-2.9952,-3.0047,-3.005,-2.9966,-2.9969,-2.9971,-2.9973,0,0,0,0,0,0,0,-2.9758,-2.9769,-2.9886,-2.9849,-2.9849,-2.9838,-2.9844,-2.9907,-2.9914,-2.9869,-2.9866,-2.9874,-2.9926,-2.9946,-2.9953,-3.0051,-2.9965,-2.997,-2.9974,-2.9976,-3.023,-3.0234,0,0,0,0,0,0,-2.9754,-2.9765,-2.9884,-2.9888,-2.9796,-2.9843,-2.985,-2.9881,-2.9913,-2.9915,-2.9877,-2.9872,-2.9938,-2.9946,-2.9955,-3.007,-2.9971,-2.9976,-2.998,-3.0227,-3.0231,-3.0235,0,0,0,0,0,0,-2.9751,-2.9765,-2.9882,-2.9826,-2.984,-2.9849,-2.9884,-2.9883,-2.9904,-2.9919,-2.992,-2.9896,-2.9936,-2.9947,-3.0023,-3.0072,-2.9979,-2.9984,-3.0223,-3.0228,-3.0233,-3.03,0,0,0,0,0,0,-2.9746,-2.9764,-2.98,-2.9827,-2.9843,-2.9948,-2.9887,-2.9887,-2.9914,-2.9908,-2.9938,-2.994,-2.9935,-3.0015,-3.0028,-3.0077,-2.9988,-3.0218,-3.0225,-3.0231,-3.0294,-3.0307,-3.0319,0,0,0,0,0,-2.9741,-2.9816,-2.9802,-2.9817,-2.9889,-2.9951,-2.996,-2.9953,-2.9918,-2.9955,-2.9964,-2.9939,-3.0064,-3.0023,-3.0038,-3.0089,-3.0215,-3.0223,-3.0231,-3.0288,-3.0305,-3.0319,0,0,0,0,0,0,-2.9794,-2.982,-2.9804,-2.9891,-2.992,-2.9943,-2.9989,-2.9971,-3.0009,-3.0002,-2.9992,-2.9999,-3.0079,-3.0092,-3.0045,-3.0185,-3.0134,-3.0145,-3.0173,-3.0189,-3.0201,-3.0196,-2.9993,0,0,0,0,0,-2.9817,-2.9865,-2.9885,-2.9959,-2.9974,-2.998,-3.0006,-2.9999,-3.0028,-3.0039,-3.0054,-3.0083,-3.0129,-3.016,-3.0203,-3.0296,-3.0302,-3.0339,-3.0352,-3.0362,-3.0371,-3.0422,-3.0439,-3.026,-3.026,-3.026,0,0,-2.9862,-2.9882,-2.9913,-2.9971,-2.9992,-3.0043,-2.999,-3.0045,-3.0083,-3.0048,-3.012,-3.0133,-3.0164,-3.0249,-3.0287,-3.0262,-3.0422,-3.0372,-3.038,-3.0384,-3.0432,-3.0449,-3.0464,-3.0266,-3.0265,-3.0264,0,0,-2.9972,-2.9992,-3.0056,-3.0079,-3.0112,-3.0115,-3.0131,-3.0158,-3.0165,-3.0238,-3.0213,-3.0258,-3.0337,-3.0361,-3.0383,-3.0505,-3.0483,-3.0519,-3.0584,-3.0634,-3.0648,-3.066,-3.0704,-3.0719,-3.0529,-3.0529,-3.0529,0,-3.0024,-3.01,-3.0092,-3.015,-3.0176,-3.0148,-3.0214,-3.0236,-3.0281,-3.03,-3.0272,-3.0372,-3.0391,-3.0482,-3.0512,-3.0531,-3.0549,-3.0515,-3.0646,-3.0659,-3.067,-3.0711,-3.0728,-3.0533,-3.0533,-3.0532,-3.0532,0,-3.0163,-3.0216,-3.0265,-3.031,-3.0342,-3.0403,-3.0405,-3.0439,-3.0429,-3.0436,-3.0511,-3.0534,-3.0581,-3.0602,-3.0593,-3.0693,-3.0676,-3.0648,-3.0596,-3.0692,-3.073,-3.0746,-3.0539,-3.0538,-3.0536,-3.0535,0,0,-3.0306,-3.0348,-3.0366,-3.0386,-3.0422,-3.0462,-3.0524,-3.0571,-3.06,-3.0633,-3.0684,-3.0753,-3.0727,-3.0753,-3.0747,-3.0791,-3.0886,-3.0757,-3.0757,-3.078,-3.0997,-3.1018,-3.1036,-3.0872,-3.0875,-3.0877,-3.0994,0,-3.0417,-3.0523,-3.0519,-3.0618,-3.0668,-3.0642,-3.0696,-3.0724,-3.0732,-3.0775,-3.0784,-3.0834,-3.0796,-3.0811,-3.0854,-3.0865,-3.0929,-3.0857,-3.0919,-3.0922,-3.0911,-3.1056,-3.1078,-3.1187,-3.1009,-3.1012,-3.1014,0,-3.056,-3.0599,-3.0703,-3.0732,-3.0753,-3.0801,-3.0845,-3.0886,-3.0918,-3.0921,-3.0951,-3.0938,-3.1001,-3.0949,-3.1036,-3.0987,-3.1012,-3.1022,-3.1026,-3.1031,-3.0973,-3.1064,-3.1221,-3.1238,-3.1037,-3.1035,-3.1034,0,-3.0654,-3.0732,-3.0805,-3.0823,-3.0859,-3.0894,-3.091,-3.0939,-3.0968,-3.1007,-3.1026,-3.1071,-3.1096,-3.1131,-3.1131,-3.1094,-3.1219,-3.1167,-3.1223,-3.1224,-3.125,-3.1248,-3.1412,-3.1268,-3.1268,-3.1267,-3.1267,0,-3.0778,-3.0843,-3.0848,-3.0892,-3.0965,-3.096,-3.1032,-3.1045,-3.1071,-3.1118,-3.11,-3.1144,-3.1142,-3.1188,-3.1188,-3.126,-3.1271,-3.1276,-3.1275,-3.1277,-3.1277,-3.1293,-3.1285,-3.1272,-3.1271,-3.127,-3.1269,0,-3.0894,-3.09,-3.0977,-3.1006,-3.1015,-3.1067,-3.1091,-3.1134,-3.1142,-3.1202,-3.1216,-3.1228,-3.1281,-3.1285,-3.1346,-3.1346,-3.1433,-3.1424,-3.1422,-3.1421,-3.1476,-3.1471,-3.1657,-3.1681,-3.1521,-3.1523,-3.1524,0,-3.0972,-3.1021,-3.1056,-3.1086,-3.1105,-3.1154,-3.1184,-3.1182,-3.1214,-3.1255,-3.1293,-3.1345,-3.1385,-3.1472,-3.1486,-3.1533,-3.1525,-3.1587,-3.1532,-3.1532,-3.1525,-3.1522,-3.1527,-3.1597,-3.1599,-3.16,-3.1601,0,-3.111,-3.1111,-3.1155,-3.1201,-3.1237,-3.1273,-3.1307,-3.1333,-3.1335,-3.1372,-3.1427,-3.1459,-3.1522,-3.1573,-3.162,-3.1637,-3.162,-3.1619,-3.1634,-3.1636,-3.1633,-3.1635,-3.1451,-3.1614,-3.1613,-3.1612,-3.1611,-3.1611,-3.1209,-3.1252,-3.1283,-3.1334,-3.1359,-3.1391,-3.1433,-3.1447,-3.1492,-3.1543,-3.154,-3.16,-3.1632,-3.1693,-3.1714,-3.1761,-3.174,-3.1763,-3.1768,-3.1773,-3.1779,-3.1627,-3.177,-3.1769,-3.1769,-3.1769,-3.1769,0,-3.1346,-3.1365,-3.1411,-3.1459,-3.1499,-3.1481,-3.1517,-3.1552,-3.1605,-3.1636,-3.1677,-3.1741,-3.1791,-3.181,-3.1859,-3.1894,-3.1887,-3.1907,-3.1903,-3.1908,-3.1795,-3.1777,-3.1911,-3.1911,-3.1911,-3.1911,-3.1911,-3.1911,-3.1422,-3.1494,-3.1499,-3.1584,-3.1603,-3.1662,-3.1684,-3.1714,-3.1739,-3.1811,-3.1853,-3.1865,-3.1892,-3.1943,-3.1989,-3.1993,-3.2012,-3.2035,-3.2036,-3.193,-3.1916,-3.1902,-3.1884,-3.2039,-3.2039,-3.2145,-3.2146,-3.2146]},{"header":{"parameterUnit":"m.s-1","parameterCategory":1,"la1":30.2991,"la2":30.254,"lo1":-89.0895,"lo2":-89.0444,"dy":0.0017,"dx":0.0017,"nx":28,"ny":28,"refTime":"2025-11-24T09:00:00:Z","depth":0,"parameterNumber":3,"parameterNumberName":"V-component_of_WINDS"},"data":[0,0,0,0,0,0,0,0,0,0,0,0,0,0,0,0,0,0,0,0,0,0,0,0,0,0,0,0,0,0,0,0,0,0,0,0,0,0,0,0,0,0,0,0,0,0,0,0,0,0,0,0,0,0,0,0,0,0,0.3911,0.3911,0,0.3916,0.3916,0.3916,0.3937,0.3938,0.3938,0.3938,0.3941,0.3941,0.394,0,0,0,0,0,0,0,0,0,0,0,0,0,0.3922,0.3922,0.3911,0.3911,0.3911,0.3916,0.3916,0.3916,0.3937,0.3938,0.3938,0.3939,0.3941,0.3941,0.394,0,0,0,0,0,0,0,0,0,0,0,0,0,0.3921,0.3922,0.3911,0.3923,0.3924,0.3916,0.3916,0.3916,0.3937,0.3938,0.3938,0.3939,0.3941,0.3941,0.394,0.3921,0,0,0.3938,0.3938,0,0,0,0,0,0,0,0,0.3921,0.3921,0.3921,0.3922,0.3923,0.3927,0.3921,0.3918,0.3937,0.3932,0.3939,0.3939,0.3935,0.3935,0.3934,0.3921,0.3921,0.3938,0.3938,0.3937,0.3937,0,0,0,0,0,0,0,0.3921,0.3921,0.3913,0.3921,0.3922,0.3928,0.3928,0.392,0.3929,0.3932,0.3934,0.3934,0.3936,0.3935,0.3935,0.3921,0.3938,0.3938,0.3937,0.3937,0.3897,0.3897,0,0,0,0,0,0,0.392,0.392,0.3913,0.3913,0.3924,0.3927,0.3928,0.3925,0.3929,0.3931,0.3933,0.3935,0.3936,0.3935,0.3935,0.3916,0.3937,0.3937,0.3937,0.3898,0.3897,0.3896,0,0,0,0,0,0,0.392,0.3919,0.3913,0.3917,0.3917,0.3926,0.3922,0.3924,0.3923,0.393,0.3932,0.3931,0.3936,0.3936,0.3926,0.3916,0.3937,0.3936,0.3899,0.3898,0.3897,0.3875,0,0,0,0,0,0,0.392,0.3919,0.3911,0.3917,0.3917,0.3903,0.3922,0.3924,0.3922,0.3925,0.3928,0.3929,0.3937,0.3926,0.3925,0.3915,0.3936,0.39,0.3898,0.3897,0.3877,0.3874,0.3871,0,0,0,0,0,0.392,0.3903,0.3911,0.3909,0.3907,0.3902,0.3902,0.3911,0.3921,0.3914,0.392,0.3929,0.3917,0.3925,0.3924,0.3914,0.39,0.3899,0.3897,0.3878,0.3874,0.3871,0,0,0,0,0,0,0.3894,0.3904,0.3912,0.3897,0.3899,0.3906,0.3897,0.3906,0.3905,0.3907,0.3918,0.3919,0.3908,0.391,0.3918,0.3898,0.3911,0.3909,0.3897,0.3893,0.389,0.389,0.3935,0,0,0,0,0,0.3887,0.3882,0.3891,0.3877,0.3878,0.3887,0.3885,0.3893,0.3895,0.3896,0.39,0.3901,0.3899,0.3896,0.3893,0.3878,0.388,0.3871,0.3868,0.3865,0.3864,0.3859,0.3856,0.3891,0.3891,0.3891,0,0,0.3871,0.3876,0.3872,0.3872,0.3874,0.387,0.3887,0.3881,0.3878,0.3894,0.3886,0.3889,0.3892,0.388,0.3875,0.3881,0.3855,0.3863,0.3861,0.3861,0.3857,0.3854,0.3851,0.389,0.389,0.3891,0,0,0.3841,0.3844,0.3834,0.3837,0.3841,0.3848,0.3846,0.3852,0.3856,0.3848,0.3861,0.3858,0.3852,0.3854,0.3854,0.383,0.384,0.3829,0.3813,0.3808,0.3805,0.3803,0.3796,0.3793,0.3827,0.3827,0.3827,0,0.3821,0.3815,0.3827,0.3821,0.3821,0.3838,0.3829,0.3831,0.3834,0.3834,0.3842,0.3837,0.3839,0.383,0.3825,0.3824,0.3823,0.3828,0.3805,0.3803,0.3801,0.3794,0.3792,0.3826,0.3826,0.3826,0.3826,0,0.3791,0.3787,0.3778,0.3783,0.3782,0.3774,0.3787,0.3785,0.3794,0.38,0.3794,0.3798,0.3799,0.3797,0.3804,0.3789,0.3794,0.3803,0.3816,0.3796,0.379,0.3788,0.3824,0.3824,0.3825,0.3825,0,0,0.3742,0.3756,0.3753,0.3757,0.3765,0.3762,0.3756,0.3758,0.3757,0.376,0.3756,0.3753,0.3763,0.3763,0.3771,0.3767,0.3751,0.3777,0.3778,0.3774,0.3738,0.3731,0.3728,0.3758,0.3757,0.3757,0.3738,0,0.3715,0.3706,0.3719,0.3707,0.3705,0.3723,0.3718,0.3723,0.373,0.373,0.3738,0.3736,0.3748,0.3749,0.3746,0.3753,0.3744,0.3755,0.3755,0.3755,0.3755,0.3725,0.3717,0.3699,0.3736,0.3735,0.3735,0,0.3681,0.3684,0.3673,0.3685,0.3685,0.368,0.3685,0.3684,0.3691,0.3697,0.3699,0.371,0.3707,0.372,0.3717,0.3724,0.3725,0.373,0.3729,0.373,0.3744,0.3726,0.3694,0.3691,0.3731,0.3732,0.3732,0,0.3649,0.365,0.3645,0.3647,0.366,0.3658,0.3663,0.3671,0.3672,0.3676,0.3678,0.3681,0.3683,0.3685,0.3698,0.3706,0.3694,0.3707,0.3699,0.3699,0.3695,0.3696,0.3664,0.3695,0.3695,0.3695,0.3695,0,0.3617,0.361,0.3631,0.3627,0.3621,0.3637,0.363,0.3637,0.3645,0.3644,0.3659,0.3658,0.3674,0.3675,0.3685,0.3682,0.3682,0.3688,0.369,0.3687,0.3686,0.3688,0.369,0.3694,0.3695,0.3695,0.3695,0,0.358,0.3593,0.3589,0.3603,0.3607,0.3602,0.3614,0.3612,0.3622,0.3621,0.3622,0.3636,0.3639,0.3652,0.3656,0.3663,0.3658,0.3662,0.3655,0.3657,0.365,0.3651,0.3618,0.3616,0.3647,0.3647,0.3647,0,0.3559,0.3555,0.3569,0.3571,0.3576,0.3577,0.358,0.3596,0.3598,0.3608,0.3605,0.361,0.3614,0.3617,0.3628,0.3633,0.3639,0.3628,0.364,0.3637,0.3641,0.3641,0.3642,0.3625,0.3624,0.3624,0.3624,0,0.3522,0.353,0.3533,0.3539,0.3542,0.3548,0.3554,0.3555,0.3573,0.3574,0.3578,0.3582,0.3589,0.3593,0.3601,0.3607,0.3619,0.362,0.3619,0.3615,0.3612,0.3615,0.365,0.362,0.3621,0.3621,0.3621,0.3621,0.3493,0.3491,0.3502,0.3506,0.3514,0.352,0.352,0.3531,0.3535,0.3542,0.3552,0.3555,0.3565,0.3577,0.3583,0.3586,0.3592,0.359,0.359,0.3589,0.3588,0.3612,0.3587,0.3587,0.3587,0.3588,0.3588,0,0.3458,0.3467,0.3471,0.3481,0.3485,0.3497,0.3506,0.3508,0.3511,0.352,0.3525,0.3531,0.3537,0.355,0.3557,0.3557,0.3563,0.3559,0.3559,0.3561,0.3581,0.3582,0.3554,0.3554,0.3554,0.3554,0.3554,0.3554,0.344,0.3439,0.3449,0.3452,0.3461,0.3465,0.3469,0.3476,0.3484,0.349,0.3495,0.3504,0.3516,0.3525,0.3531,0.3535,0.3537,0.3531,0.3537,0.3556,0.3559,0.3562,0.3563,0.3531,0.3531,0.3517,0.3517,0.3516]}]]